Torna al catalogo

YZ-1 R/B

AttivoMEO
NORAD 43584·ROCKET BODY·🇨🇳 China

Lanciato Jul 29, 2018 da Xichang Satellite Launch Center

Loading…

Prossimi Passaggi (prossime 24 ore)

TLE

AggiornatoSource: Space-Track

Epoca: Sep 13, 2026, 04:52 UTC

1 43584U 18062D   26256.20302876 -.00000004  00000-0  00000-0 0  9995
2 43584  54.0099 187.8519 0044919  50.0544 310.3289  1.78871145 53092

Traccia YZ-1 R/B in tempo reale con AllMySat

Download on the App Store